| time (UTC) | temp F | wind direction | speed MPH | gust MPH | rain 1hr in | rain 24hr in | rain mn in | humidity % | barometer mb |
| 20260503031438 | 50 | 39 | 13.0 | 20.0 | 0.00 | 0.01 | 0.00 | 60 | 999.8 |
| 20260503025638 | 51 | 38 | 15.0 | 25.0 | 0.00 | 0.01 | 0.00 | 61 | 999.9 |
| 20260503023838 | 51 | 36 | 15.0 | 23.0 | 0.00 | 0.01 | 0.00 | 65 | 999.9 |
| 20260503022938 | 51 | 28 | 18.0 | 25.0 | 0.00 | 0.01 | 0.00 | 63 | 1000.1 |
| 20260503022038 | 51 | 351 | 15.0 | 24.0 | 0.00 | 0.01 | 0.00 | 71 | 1000.1 |
| 20260503021138 | 51 | 330 | 12.0 | 20.0 | 0.00 | 0.01 | 0.00 | 78 | 1000.2 |
| 20260503020238 | 51 | 292 | 5.0 | 8.0 | 0.00 | 0.01 | 0.00 | 82 | 1000.2 |
| 20260503015338 | 51 | 289 | 3.0 | 6.0 | 0.00 | 0.01 | 0.00 | 80 | 1000.2 |
| 20260503014438 | 52 | 272 | 1.0 | 3.0 | 0.00 | 0.01 | 0.00 | 79 | 999.9 |
| 20260503012638 | 52 | 265 | 2.0 | 7.0 | 0.00 | 0.01 | 0.00 | 79 | 1000.1 |
| 20260503011738 | 52 | 235 | 2.0 | 6.0 | 0.00 | 0.01 | 0.00 | 79 | 999.9 |
| 20260503010838 | 52 | 244 | 2.0 | 5.0 | 0.00 | 0.01 | 0.00 | 79 | 999.9 |
| 20260503005938 | 53 | 338 | 2.0 | 4.0 | 0.00 | 0.01 | 0.00 | 78 | 999.8 |
| 20260503005038 | 53 | 328 | 2.0 | 4.0 | 0.00 | 0.01 | 0.00 | 78 | 999.7 |
| 20260503004138 | 53 | 220 | 2.0 | 4.0 | 0.00 | 0.01 | 0.00 | 77 | 999.5 |
| 20260503003238 | 53 | 173 | 2.0 | 5.0 | 0.00 | 0.01 | 0.00 | 74 | 999.6 |
| 20260503002338 | 54 | 182 | 2.0 | 5.0 | 0.00 | 0.01 | 0.00 | 68 | 999.6 |
| 20260503000537 | 54 | 193 | 3.0 | 5.0 | 0.00 | 0.01 | 0.00 | 67 | 999.5 |
| 20260502235637 | 54 | 176 | 2.0 | 5.0 | 0.00 | 0.01 | 0.01 | 67 | 999.4 |
| 20260502234737 | 54 | 162 | 1.0 | 4.0 | 0.00 | 0.01 | 0.01 | 67 | 999.4 |
| 20260502233837 | 54 | 185 | 4.0 | 5.0 | 0.00 | 0.01 | 0.01 | 66 | 999.4 |
| 20260502232937 | 55 | 224 | 3.0 | 5.0 | 0.00 | 0.01 | 0.01 | 64 | 999.4 |
| 20260502232037 | 55 | 233 | 3.0 | 7.0 | 0.00 | 0.01 | 0.01 | 65 | 999.3 |
| 20260502231137 | 56 | 98 | 1.0 | 4.0 | 0.00 | 0.01 | 0.01 | 64 | 999.3 |
| 20260502225337 | 55 | 114 | 1.0 | 3.0 | 0.00 | 0.01 | 0.01 | 66 | 999.3 |
| 20260502224437 | 55 | 98 | 1.0 | 3.0 | 0.00 | 0.01 | 0.01 | 65 | 999.4 |
| 20260502223537 | 55 | 86 | 0.0 | 2.0 | 0.00 | 0.01 | 0.01 | 65 | 999.3 |
| 20260502221737 | 55 | 53 | 1.0 | 2.0 | 0.00 | 0.01 | 0.01 | 65 | 999.5 |
| 20260502220837 | 55 | 37 | 3.0 | 7.0 | 0.00 | 0.01 | 0.01 | 65 | 999.3 |
| 20260502215937 | 54 | 39 | 4.0 | 9.0 | 0.00 | 0.01 | 0.01 | 66 | 999.3 |
| 20260502215037 | 54 | 43 | 2.0 | 6.0 | 0.00 | 0.01 | 0.01 | 66 | 999.4 |
| 20260502214137 | 54 | 38 | 4.0 | 8.0 | 0.00 | 0.01 | 0.01 | 67 | 999.3 |
| 20260502212337 | 54 | 38 | 4.0 | 10.0 | 0.00 | 0.01 | 0.01 | 68 | 999.2 |
| 20260502211437 | 54 | 37 | 5.0 | 10.0 | 0.00 | 0.01 | 0.01 | 70 | 999.3 |
| 20260502210537 | 54 | 40 | 7.0 | 11.0 | 0.00 | 0.01 | 0.01 | 69 | 999.2 |
| 20260502205637 | 54 | 36 | 5.0 | 10.0 | 0.00 | 0.01 | 0.01 | 70 | 999.2 |
| 20260502204737 | 53 | 35 | 11.0 | 17.0 | 0.00 | 0.01 | 0.01 | 72 | 999.2 |
| 20260502202937 | 53 | 36 | 9.0 | 15.0 | 0.00 | 0.01 | 0.01 | 72 | 999.4 |
| 20260502202036 | 52 | 36 | 10.0 | 16.0 | 0.00 | 0.01 | 0.01 | 73 | 999.5 |
| 20260502201136 | 52 | 33 | 11.0 | 16.0 | 0.00 | 0.01 | 0.01 | 74 | 999.6 |
| 20260502195336 | 52 | 34 | 14.0 | 19.0 | 0.00 | 0.01 | 0.01 | 75 | 999.8 |
| 20260502194436 | 53 | 29 | 13.0 | 19.0 | 0.00 | 0.01 | 0.01 | 75 | 999.8 |
| 20260502193536 | 53 | 19 | 12.0 | 19.0 | 0.00 | 0.01 | 0.01 | 75 | 999.8 |
| 20260502191736 | 54 | 303 | 9.0 | 16.0 | 0.00 | 0.01 | 0.01 | 65 | 1000.0 |
| 20260502190836 | 54 | 289 | 8.0 | 14.0 | 0.00 | 0.01 | 0.01 | 66 | 1000.2 |
| 20260502185936 | 54 | 285 | 9.0 | 13.0 | 0.00 | 0.01 | 0.01 | 71 | 1000.3 |
| 20260502185036 | 54 | 293 | 8.0 | 13.0 | 0.00 | 0.01 | 0.01 | 70 | 1000.2 |
| 20260502184136 | 53 | 308 | 11.0 | 15.0 | 0.00 | 0.01 | 0.01 | 71 | 1000.3 |
| 20260502183236 | 55 | 293 | 8.0 | 15.0 | 0.00 | 0.01 | 0.01 | 67 | 1000.4 |
| 20260502182336 | 54 | 292 | 8.0 | 16.0 | 0.00 | 0.01 | 0.01 | 66 | 1000.3 |
| 20260502180536 | 54 | 300 | 6.0 | 12.0 | 0.00 | 0.01 | 0.01 | 69 | 1000.3 |
| 20260502170236 | 53 | 300 | 5.0 | 8.0 | 0.00 | 0.01 | 0.01 | 72 | 1000.9 |
| 20260502163536 | 53 | 268 | 2.0 | 5.0 | 0.00 | 0.01 | 0.01 | 72 | 1000.8 |
| 20260502162636 | 52 | 292 | 3.0 | 6.0 | 0.00 | 0.01 | 0.01 | 73 | 1000.8 |
| 20260502160836 | 53 | 278 | 1.0 | 4.0 | 0.00 | 0.01 | 0.01 | 73 | 1001.2 |
| 20260502152336 | 52 | 21 | 2.0 | 6.0 | 0.00 | 0.01 | 0.01 | 76 | 1001.3 |
| 20260502151435 | 51 | 35 | 5.0 | 11.0 | 0.00 | 0.01 | 0.01 | 77 | 1001.4 |
| 20260502150535 | 51 | 37 | 4.0 | 8.0 | 0.00 | 0.01 | 0.01 | 77 | 1001.4 |
| 20260502123235 | 50 | 277 | 2.0 | 5.0 | 0.00 | 0.01 | 0.01 | 90 | 1001.4 |
| 20260502122335 | 50 | 279 | 3.0 | 6.0 | 0.00 | 0.01 | 0.01 | 90 | 1001.6 |
| 20260502121435 | 50 | 221 | 2.0 | 6.0 | 0.00 | 0.01 | 0.01 | 89 | 1001.5 |
| 20260502120535 | 50 | 195 | 2.0 | 6.0 | 0.01 | 0.01 | 0.01 | 88 | 1001.2 |
| 20260502115635 | 50 | 303 | 1.0 | 4.0 | 0.01 | 0.01 | 0.01 | 89 | 1001.2 |
| 20260502114735 | 50 | 103 | 2.0 | 3.0 | 0.01 | 0.01 | 0.01 | 88 | 1001.2 |
| 20260502113835 | 50 | 60 | 2.0 | 4.0 | 0.01 | 0.01 | 0.01 | 88 | 1000.9 |
| 20260502112935 | 49 | 194 | 2.0 | 5.0 | 0.01 | 0.01 | 0.01 | 89 | 1000.9 |
| 20260502112035 | 49 | 227 | 2.0 | 5.0 | 0.01 | 0.01 | 0.01 | 89 | 1001.4 |
| 20260502111134 | 49 | 285 | 6.0 | 12.0 | 0.00 | 0.00 | 0.00 | 90 | 1001.4 |
| 20260502110234 | 49 | 279 | 7.0 | 12.0 | 0.00 | 0.00 | 0.00 | 89 | 1001.8 |
| 20260502105334 | 49 | 287 | 5.0 | 9.0 | 0.00 | 0.00 | 0.00 | 89 | 1001.4 |
| 20260502104434 | 49 | 257 | 4.0 | 8.0 | 0.00 | 0.00 | 0.00 | 87 | 1001.3 |
| 20260502103534 | 49 | 236 | 5.0 | 9.0 | 0.00 | 0.00 | 0.00 | 88 | 1001.3 |
| 20260502101734 | 49 | 220 | 6.0 | 12.0 | 0.00 | 0.00 | 0.00 | 90 | 1001.0 |
| 20260502091434 | 49 | 208 | 6.0 | 12.0 | 0.00 | 0.00 | 0.00 | 89 | 1000.6 |
| 20260502070834 | 49 | 222 | 8.0 | 16.0 | 0.00 | 0.00 | 0.00 | 88 | 1000.9 |
| 20260502065934 | 49 | 211 | 7.0 | 15.0 | 0.00 | 0.00 | 0.00 | 87 | 1001.0 |
| 20260502065034 | 49 | 214 | 7.0 | 15.0 | 0.00 | 0.00 | 0.00 | 87 | 1000.9 |
| 20260502064133 | 49 | 214 | 8.0 | 16.0 | 0.00 | 0.00 | 0.00 | 87 | 1000.9 |
| 20260502062333 | 49 | 209 | 9.0 | 17.0 | 0.00 | 0.00 | 0.00 | 85 | 1001.4 |
| 20260502061433 | 49 | 203 | 7.0 | 15.0 | 0.00 | 0.00 | 0.00 | 84 | 1001.1 |
| 20260502060533 | 50 | 197 | 6.0 | 15.0 | 0.00 | 0.00 | 0.00 | 84 | 1001.1 |
| 20260502055633 | 50 | 198 | 6.0 | 13.0 | 0.00 | 0.00 | 0.00 | 83 | 1001.1 |
| 20260502054733 | 50 | 204 | 6.0 | 14.0 | 0.00 | 0.00 | 0.00 | 82 | 1001.0 |
| 20260502053833 | 50 | 202 | 6.0 | 12.0 | 0.00 | 0.00 | 0.00 | 81 | 1001.0 |
| 20260502052033 | 50 | 207 | 6.0 | 13.0 | 0.00 | 0.00 | 0.00 | 79 | 1001.2 |
| 20260502044433 | 50 | 217 | 10.0 | 18.0 | 0.00 | 0.00 | 0.00 | 79 | 1001.4 |
| 20260502043533 | 50 | 218 | 10.0 | 19.0 | 0.00 | 0.00 | 0.00 | 80 | 1001.5 |
| 20260502042633 | 50 | 209 | 8.0 | 17.0 | 0.00 | 0.00 | 0.00 | 80 | 1001.4 |
| 20260502041733 | 50 | 210 | 8.0 | 16.0 | 0.00 | 0.00 | 0.00 | 80 | 1001.4 |
| 20260502040833 | 49 | 206 | 7.0 | 17.0 | 0.00 | 0.00 | 0.00 | 80 | 1001.3 |
| 20260502035933 | 49 | 207 | 7.0 | 16.0 | 0.00 | 0.00 | 0.00 | 80 | 1001.3 |
| 20260502035033 | 49 | 214 | 8.0 | 16.0 | 0.00 | 0.00 | 0.00 | 80 | 1001.3 |
| 20260502034133 | 49 | 212 | 9.0 | 20.0 | 0.00 | 0.00 | 0.00 | 79 | 1001.2 |
| 20260502033233 | 49 | 217 | 8.0 | 18.0 | 0.00 | 0.00 | 0.00 | 80 | 1001.4 |